[[{"header":{"parameterUnit":"m.s-1","parameterCategory":1,"la1":30.2991,"la2":30.254,"lo1":-89.0895,"lo2":-89.0444,"dy":0.0017,"dx":0.0017,"nx":28,"ny":28,"refTime":"2025-05-25T03:00:00:Z","depth":0,"parameterNumber":2,"parameterNumberName":"U-component_of_WINDS"},"data":[0,0,0,0,0,0,0,0,0,0,0,0,0,0,0,0,0,0,0,0,0,0,0,0,0,0,0,0,0,0,0,0,0,0,0,0,0,0,0,0,0,0,0,0,0,0,0,0,0,0,0,0,0,0,0,0,0,0,0.4082,0.4083,0,0.4147,0.4148,0.4149,0.4205,0.4206,0.4206,0.4207,0.4274,0.4275,0.4276,0,0,0,0,0,0,0,0,0,0,0,0,0,0.4006,0.4007,0.4082,0.4083,0.4084,0.4147,0.4148,0.4149,0.4205,0.4206,0.4206,0.4207,0.4274,0.4275,0.4276,0,0,0,0,0,0,0,0,0,0,0,0,0,0.4052,0.4007,0.4082,0.4119,0.4123,0.4147,0.4148,0.4149,0.4205,0.4206,0.4207,0.4207,0.4273,0.4275,0.4277,0.4269,0,0,0.4282,0.4283,0,0,0,0,0,0,0,0,0.4049,0.4054,0.4113,0.4117,0.4121,0.4169,0.4146,0.4189,0.4204,0.4174,0.4207,0.4208,0.4238,0.4243,0.4253,0.4272,0.4275,0.4282,0.4283,0.4284,0.4285,0,0,0,0,0,0,0,0.4046,0.4052,0.4108,0.4114,0.4119,0.4133,0.414,0.4154,0.42,0.4177,0.4181,0.4188,0.4241,0.4251,0.4255,0.4276,0.4282,0.4284,0.4285,0.4286,0.4291,0.429,0,0,0,0,0,0,0.4037,0.4049,0.4106,0.411,0.4087,0.4133,0.4142,0.4153,0.42,0.4208,0.4187,0.419,0.4248,0.4253,0.4258,0.4252,0.4284,0.4286,0.4287,0.4292,0.4291,0.429,0,0,0,0,0,0,0.4035,0.4041,0.4103,0.4081,0.4089,0.4134,0.4145,0.4154,0.4164,0.4208,0.4216,0.4189,0.4249,0.4255,0.4266,0.4255,0.4287,0.4288,0.4293,0.4292,0.4291,0.4239,0,0,0,0,0,0,0.4032,0.404,0.4038,0.408,0.409,0.411,0.4145,0.4154,0.4167,0.4172,0.4212,0.422,0.425,0.4263,0.4267,0.4258,0.429,0.4295,0.4293,0.4291,0.4242,0.4236,0.4231,0,0,0,0,0,0.4029,0.4021,0.4037,0.4044,0.4088,0.4109,0.4115,0.415,0.4166,0.4164,0.4192,0.4219,0.4255,0.4263,0.4269,0.426,0.4295,0.4293,0.4291,0.4245,0.4238,0.4232,0,0,0,0,0,0,0.3977,0.4027,0.4046,0.4051,0.4075,0.4119,0.4117,0.4141,0.4162,0.4165,0.4208,0.4216,0.4222,0.4242,0.425,0.4255,0.4279,0.4278,0.4241,0.4235,0.423,0.4225,0.4291,0,0,0,0,0,0.3965,0.3978,0.4022,0.4022,0.4033,0.4073,0.4083,0.4108,0.4135,0.4145,0.4174,0.4199,0.4216,0.4227,0.4245,0.4245,0.4255,0.4242,0.4236,0.4232,0.423,0.4232,0.4226,0.4283,0.4283,0.4283,0,0,0.3943,0.3972,0.3978,0.4012,0.4034,0.4046,0.4081,0.4093,0.4102,0.4147,0.4159,0.418,0.4211,0.4216,0.422,0.4233,0.4217,0.4229,0.4225,0.4226,0.4229,0.4223,0.4219,0.4282,0.4282,0.4282,0,0,0.3908,0.3931,0.3934,0.3955,0.3987,0.4013,0.4014,0.4053,0.4069,0.4081,0.4115,0.4127,0.4156,0.4176,0.419,0.4162,0.4187,0.4166,0.4138,0.4139,0.4134,0.4131,0.412,0.4116,0.4165,0.4165,0.4165,0,0.3875,0.3895,0.3932,0.3941,0.3955,0.3996,0.3999,0.4018,0.4054,0.4063,0.4077,0.4113,0.4137,0.4147,0.414,0.415,0.4152,0.4162,0.4132,0.4129,0.4126,0.4116,0.4112,0.4162,0.4162,0.4163,0.4163,0,0.3854,0.3867,0.3865,0.3899,0.3913,0.3919,0.3956,0.3966,0.3988,0.4013,0.4025,0.4054,0.4079,0.4083,0.4106,0.4096,0.4104,0.4124,0.4149,0.4117,0.4109,0.4106,0.4158,0.4159,0.416,0.4161,0,0,0.3788,0.3842,0.384,0.3856,0.3894,0.3905,0.3913,0.3937,0.3944,0.3967,0.3974,0.3997,0.4016,0.4032,0.4058,0.4058,0.4033,0.4079,0.408,0.4069,0.4024,0.4008,0.4004,0.405,0.4049,0.4049,0.4022,0,0.3759,0.3775,0.3808,0.3814,0.3826,0.3865,0.3871,0.3895,0.3918,0.3932,0.3957,0.3972,0.3997,0.4006,0.4009,0.4036,0.4025,0.4038,0.4057,0.4057,0.4048,0.4,0.3983,0.3956,0.4019,0.4018,0.4018,0,0.3728,0.3749,0.3755,0.3793,0.3799,0.3804,0.3828,0.3841,0.3869,0.3885,0.3902,0.393,0.394,0.3962,0.3976,0.3984,0.3994,0.4008,0.4008,0.4011,0.4036,0.4002,0.3948,0.3944,0.4013,0.4014,0.4014,0,0.3679,0.3709,0.3717,0.3729,0.3772,0.3775,0.3793,0.3822,0.3834,0.3855,0.3863,0.3885,0.3897,0.3913,0.3946,0.3959,0.3956,0.3981,0.397,0.3969,0.3968,0.3967,0.3915,0.3973,0.3973,0.3973,0.3973,0,0.3644,0.3646,0.3696,0.37,0.3704,0.3742,0.3744,0.3766,0.3791,0.38,0.3835,0.3843,0.3886,0.3898,0.3924,0.3931,0.3936,0.395,0.3957,0.3947,0.3945,0.3954,0.3957,0.3972,0.3973,0.3973,0.3973,0,0.359,0.3623,0.3634,0.3674,0.3684,0.3685,0.3719,0.3725,0.375,0.3761,0.3766,0.3805,0.3822,0.3856,0.3882,0.3899,0.39,0.3912,0.3891,0.3895,0.3882,0.3883,0.3834,0.3829,0.389,0.3889,0.3888,0,0.3566,0.3569,0.3609,0.3617,0.3634,0.3648,0.366,0.3697,0.3708,0.374,0.3742,0.3761,0.3779,0.3804,0.3834,0.3854,0.3867,0.3848,0.387,0.386,0.3867,0.3866,0.3866,0.3843,0.3843,0.3842,0.3841,0,0.3518,0.3534,0.3551,0.3573,0.3587,0.3606,0.3627,0.3632,0.3673,0.3684,0.3702,0.3715,0.3742,0.3761,0.3785,0.3804,0.3829,0.3834,0.3832,0.3823,0.381,0.3817,0.3878,0.3835,0.3836,0.3836,0.3837,0.3837,0.3479,0.3483,0.3512,0.3529,0.3548,0.3567,0.3574,0.3599,0.3615,0.3639,0.366,0.3675,0.3702,0.3738,0.3754,0.3767,0.3779,0.3777,0.3777,0.3776,0.3771,0.3808,0.3772,0.3772,0.3772,0.3772,0.3772,0,0.3433,0.3454,0.3469,0.3497,0.351,0.3533,0.3557,0.3566,0.358,0.3603,0.3619,0.3639,0.3657,0.3688,0.3709,0.3713,0.3725,0.3717,0.3717,0.3721,0.3759,0.3758,0.3707,0.3707,0.3707,0.3707,0.3707,0.3707,0.3411,0.342,0.3439,0.3457,0.3477,0.3492,0.3504,0.3521,0.354,0.356,0.3575,0.3595,0.3622,0.3644,0.3662,0.3671,0.3676,0.3665,0.3677,0.3712,0.3718,0.3724,0.3724,0.3666,0.3666,0.3638,0.3638,0.3637]},{"header":{"parameterUnit":"m.s-1","parameterCategory":1,"la1":30.2991,"la2":30.254,"lo1":-89.0895,"lo2":-89.0444,"dy":0.0017,"dx":0.0017,"nx":28,"ny":28,"refTime":"2025-05-25T03:00:00:Z","depth":0,"parameterNumber":3,"parameterNumberName":"V-component_of_WINDS"},"data":[0,0,0,0,0,0,0,0,0,0,0,0,0,0,0,0,0,0,0,0,0,0,0,0,0,0,0,0,0,0,0,0,0,0,0,0,0,0,0,0,0,0,0,0,0,0,0,0,0,0,0,0,0,0,0,0,0,0,2.822,2.822,0,2.8197,2.8197,2.8197,2.8228,2.8229,2.823,2.8231,2.8201,2.8199,2.8197,0,0,0,0,0,0,0,0,0,0,0,0,0,2.8286,2.8284,2.8221,2.822,2.822,2.8197,2.8197,2.8197,2.8227,2.8229,2.823,2.8231,2.8202,2.8199,2.8197,0,0,0,0,0,0,0,0,0,0,0,0,0,2.8259,2.8284,2.8221,2.8233,2.8234,2.8198,2.8197,2.8197,2.8227,2.8229,2.8231,2.8232,2.8202,2.82,2.8197,2.8146,0,0,2.8188,2.8187,0,0,0,0,0,0,0,0,2.8261,2.8257,2.8231,2.8232,2.8233,2.8217,2.8209,2.8179,2.8227,2.8229,2.8231,2.8233,2.8205,2.8202,2.8193,2.8144,2.8143,2.8188,2.8186,2.8185,2.8184,0,0,0,0,0,0,0,2.8263,2.8258,2.8211,2.8231,2.8232,2.8238,2.8236,2.8204,2.8207,2.8229,2.8232,2.8229,2.8205,2.8196,2.8193,2.8143,2.8188,2.8186,2.8184,2.8183,2.8051,2.8049,0,0,0,0,0,0,2.8264,2.8259,2.8212,2.8211,2.8251,2.8235,2.8233,2.822,2.8208,2.8208,2.8227,2.823,2.82,2.8196,2.8192,2.8132,2.8185,2.8183,2.8181,2.8052,2.805,2.8048,0,0,0,0,0,0,2.8265,2.8259,2.8213,2.8236,2.823,2.8232,2.8218,2.8219,2.821,2.8207,2.8207,2.8218,2.8201,2.8196,2.8158,2.8131,2.8181,2.8179,2.8055,2.8052,2.8049,2.801,0,0,0,0,0,0,2.8267,2.826,2.8241,2.8235,2.8229,2.818,2.8216,2.8217,2.8206,2.8209,2.8198,2.8197,2.8202,2.8162,2.8155,2.8128,2.8177,2.8057,2.8053,2.805,2.8014,2.8006,2.8,0,0,0,0,0,2.8269,2.823,2.824,2.8234,2.8207,2.8179,2.8175,2.8183,2.8204,2.8185,2.8183,2.8197,2.8135,2.8157,2.815,2.8122,2.8059,2.8054,2.805,2.8017,2.8008,2.8,0,0,0,0,0,0,2.8231,2.8229,2.8241,2.8199,2.8189,2.8184,2.816,2.8173,2.8156,2.816,2.8169,2.8166,2.8125,2.812,2.8145,2.8072,2.81,2.8094,2.8077,2.8069,2.8062,2.8064,2.8174,0,0,0,0,0,2.8218,2.8197,2.8196,2.8159,2.8154,2.8158,2.8146,2.8154,2.8143,2.8138,2.8133,2.8121,2.8098,2.8083,2.8062,2.8014,2.8011,2.7991,2.7984,2.7978,2.7973,2.7946,2.7937,2.8035,2.8035,2.8035,0,0,2.819,2.8187,2.8173,2.8151,2.8145,2.8122,2.8154,2.8128,2.811,2.8134,2.8098,2.8094,2.808,2.8036,2.8017,2.803,2.7945,2.7973,2.7968,2.7966,2.7941,2.7932,2.7924,2.8032,2.8032,2.8033,0,0,2.8127,2.8123,2.8092,2.8085,2.8076,2.8079,2.8071,2.8065,2.8064,2.8028,2.8045,2.8024,2.7985,2.7975,2.7964,2.7899,2.7912,2.7892,2.7856,2.783,2.7822,2.7816,2.7792,2.7783,2.7887,2.7887,2.7887,0,2.8093,2.8061,2.8074,2.8047,2.8037,2.806,2.8027,2.8019,2.8002,2.7994,2.801,2.7963,2.7955,2.7909,2.7894,2.7885,2.7875,2.7893,2.7823,2.7816,2.781,2.7788,2.7779,2.7884,2.7885,2.7885,2.7885,0,2.802,2.7997,2.7973,2.7959,2.7946,2.7916,2.7923,2.7908,2.7917,2.7918,2.7881,2.7873,2.7851,2.7841,2.7848,2.7796,2.7805,2.7822,2.785,2.7798,2.7777,2.7769,2.7881,2.7882,2.7883,2.7883,0,0,2.7931,2.7926,2.7917,2.7911,2.7902,2.7884,2.7855,2.7836,2.7823,2.781,2.7786,2.7753,2.7769,2.7757,2.7764,2.7741,2.769,2.7761,2.7761,2.7748,2.7632,2.7619,2.7609,2.7699,2.7698,2.7696,2.7633,0,2.7869,2.7822,2.7833,2.7785,2.7764,2.7786,2.776,2.7751,2.7751,2.7732,2.7731,2.7708,2.7731,2.7725,2.7703,2.7701,2.7667,2.7706,2.7675,2.7673,2.7677,2.7598,2.7584,2.7524,2.7625,2.7623,2.7622,0,2.779,2.7777,2.7728,2.7724,2.7716,2.7693,2.7677,2.7658,2.7648,2.765,2.7638,2.7649,2.7618,2.7648,2.7606,2.7632,2.762,2.7617,2.7615,2.7611,2.7644,2.7592,2.7506,2.7497,2.7609,2.761,2.7611,0,2.773,2.77,2.7668,2.7662,2.7656,2.764,2.7636,2.7628,2.7616,2.7601,2.7593,2.7574,2.7563,2.7547,2.7552,2.7573,2.7509,2.7539,2.7508,2.7508,2.7493,2.7494,2.7403,2.7486,2.7486,2.7486,2.7486,0,2.7659,2.7628,2.7641,2.7621,2.7586,2.7599,2.7564,2.7562,2.7555,2.7534,2.755,2.7529,2.7537,2.7516,2.752,2.7484,2.7479,2.7479,2.748,2.7477,2.7477,2.7469,2.7473,2.7484,2.7484,2.7485,2.7485,0,2.7586,2.7594,2.7559,2.7557,2.7556,2.7531,2.7528,2.7508,2.7511,2.7483,2.7477,2.748,2.7456,2.746,2.7433,2.7435,2.7391,2.7397,2.7395,2.7396,2.7366,2.7368,2.7266,2.7253,2.7344,2.7344,2.7343,0,2.754,2.7517,2.7514,2.7502,2.7498,2.7478,2.7467,2.7477,2.7464,2.7452,2.7433,2.7412,2.7395,2.7356,2.7354,2.7333,2.7339,2.7305,2.7336,2.7334,2.7338,2.7339,2.7337,2.7298,2.7297,2.7296,2.7296,0,2.7458,2.7463,2.7447,2.7433,2.7419,2.7408,2.7397,2.7386,2.7396,2.738,2.7358,2.7345,2.7319,2.7297,2.7278,2.7272,2.7285,2.7286,2.7278,2.7274,2.7274,2.7274,2.7378,2.7288,2.7289,2.7289,2.729,2.729,2.7396,2.7377,2.7373,2.7354,2.7348,2.7339,2.732,2.7321,2.7303,2.7285,2.7292,2.7265,2.7256,2.7232,2.7224,2.7203,2.7216,2.7204,2.72,2.7197,2.7194,2.7278,2.7199,2.72,2.72,2.72,2.72,0,2.7315,2.7313,2.7296,2.7283,2.7268,2.7285,2.7274,2.726,2.7238,2.7229,2.7213,2.7187,2.7166,2.7163,2.7143,2.7126,2.7131,2.712,2.7121,2.712,2.7184,2.7193,2.7116,2.7116,2.7116,2.7116,2.7116,2.7117,2.7271,2.7239,2.7244,2.721,2.7208,2.7184,2.7177,2.7168,2.7161,2.7132,2.7115,2.7115,2.7108,2.7087,2.7068,2.7068,2.7059,2.7046,2.7047,2.7107,2.7115,2.7123,2.7132,2.7044,2.7044,2.6985,2.6984,2.6984]}]]